Simultaneous Nadir Overpasses (SNOs) Predictions

Prediction of SNOs between LANDSAT-8 and NPP Satellite Orbit:

Table of predicted SNOs for the next 14.0 days since TLE Epoch: 12/17/2023
Index Date (LANDSAT-8) Time (LANDSAT-8) Lat,Lon (LANDSAT-8) SZA (LANDSAT-8 ) Date (NPP) Time (NPP) Lat,Lon (NPP) SZA (NPP ) Distance(km) Time Diff (sec)
1 12/17/2023 06:58:36 70.10, 71.82 93.36 12/17/2023 06:58:09 70.09, 71.90 93.35 3.19 27
2 12/17/2023 07:48:06 -69.99,-120.70 86.76 12/17/2023 07:48:51 -70.01,-120.65 86.74 2.82 45
3 12/19/2023 22:25:34 -70.43, 20.52 86.25 12/19/2023 22:24:22 -70.50, 19.75 86.16 29.84 72
4 12/19/2023 23:15:05 70.10,-172.30 93.44 12/19/2023 23:15:01 70.12,-172.36 93.46 2.77 4
5 12/20/2023 00:04:35 -70.00, -4.82 86.67 12/20/2023 00:05:42 -69.98, -4.82 86.69 2.00 67
6 12/22/2023 14:42:09 -70.14, 135.98 86.51 12/22/2023 14:41:08 -70.16, 136.06 86.49 3.46 61
7 12/22/2023 15:31:36 70.03, -56.53 93.39 12/22/2023 15:31:52 70.05, -56.47 93.41 3.10 16
8 12/22/2023 16:21:15 -69.43, 110.28 87.20 12/22/2023 16:22:24 -69.43, 111.77 87.24 58.13 69
9 12/25/2023 06:58:38 -70.16,-108.12 86.52 12/25/2023 06:58:00 -70.14,-108.14 86.54 1.99 38
10 12/25/2023 07:48:05 70.04, 59.37 93.37 12/25/2023 07:48:44 70.04, 59.33 93.36 1.64 39
11 12/27/2023 22:25:29 70.69,-159.08 93.92 12/27/2023 22:24:20 70.76,-160.65 94.03 58.20 69
12 12/27/2023 23:15:08 -70.10, 7.68 86.67 12/27/2023 23:14:51 -70.08, 7.74 86.69 3.07 17
13 12/28/2023 00:04:35 69.98, 175.16 93.22 12/28/2023 00:05:35 69.98, 175.20 93.21 1.59 60
14 12/30/2023 14:42:06 70.17, -43.97 93.27 12/30/2023 14:41:00 70.18, -43.95 93.29 1.62 66
15 12/30/2023 15:31:36 -70.07, 123.52 86.84 12/30/2023 15:31:42 -70.08, 123.52 86.83 0.76 6
16 12/30/2023 16:21:09 69.62, -69.45 92.73 12/30/2023 16:22:19 69.61, -68.47 92.69 38.21 70



Historial Predications of SNOs between LANDSAT-8 and NPP
